Location: Bacharowice
(49.9333°N, 19.5833°E)
Time: 02:17:59
(UTC+00:00)

Meteor 1-22 Rocket - Pass Details

Date: 11 May 2021
Orbit: 789 x 939 km, 81.2° (Epoch: 24 June)

Event Time Altitude Azimuth Distance (km) Brightness Sun altitude
Rises 23:34:02 0° 346° (NNW) 3,531 8.5 -20.8°
Reaches altitude 10° 23:36:29 10° 346° (NNW) 2,605 7.6 -20.7°
Maximum altitude 23:42:27 81° 261° (W) 946 4.3 -20.5°
Enters shadow 23:45:08 36° 178° (S) 1,446 4.9 -20.3°
